sat.trackr.live / text

‹ back to catalog

STARLINK-37276

NORAD 69258 · 2026-117W

PAYLOAD ACTIVE UNKNOWN

§ Identity

Operator
Country
US
Launch date
2026-05-29
Launch site
AFETR
Launch vehicle
Mass (kg)
RCS (m²)

Purposes: comms

External: N2YO · Heavens-Above · Gunter

§ Orbital elements

Epoch: 2026-09-19T23:40:54.653088Z

Period
93.85 min
Inclination
53.1572°
Eccentricity
0.0000941
Mean motion
15.34398325 rev/d
Perigee alt
462.1 km
Apogee alt
463.4 km
Semi-major
6,840.8 km
B*
4.9977e-4
RAAN
156.4681°
Arg perigee
62.4232°
Mean anomaly
297.6866°
Rev number
1,758

§ Raw data

STARLINK-372761 69258U 26117W   26262.98674367  .00016546  00000+0  49977-3 0  99952 69258  53.1572 156.4681 0000941  62.4232 297.6866 15.34398325 17587

JSON: /api/v1/satellites/69258 · /tle

For live sub-satellite position, see the globe view (requires WebGL).

§ Visibility from observer

Set your observer location to see the next 7 days of passes ≥ 10°. The values pass through the URL so the page stays shareable.

No JS? Fill the form by hand. The geolocation button needs JavaScript.